Weather History for Hatteras, NC

Change the Weather History Date:

Friday, August 1, 2014

  Actual Average Record
Temperature  
Mean Temperature 77 °F 79 °F  
Max Temperature 80 °F 85 °F 91 °F (2002)
Min Temperature 74 °F 74 °F 61 °F (1966)
Degree Days  
Heating Degree Days 0 0  
Month to date heating degree days 0 0  
Since 1 June heating degree days 0 3  
Since 1 July heating degree days 0 0  
Cooling Degree Days 12 14  
Month to date cooling degree days 12 14  
Year to date cooling degree days 959 902  
Since 1 June cooling degree days 723 759  
Growing Degree Days 26 (Base 50)    
Moisture  
Dew Point 74 °F    
Average Humidity 84    
Maximum Humidity 100    
Minimum Humidity 67    
Precipitation  
Precipitation 1.02 in 0.19 in 2.02 in (1989)
Month to date precipitation 1.02 0.19  
Year to date precipitation 32.02 30.45  
Snow  
Snow 0.00 in - - ()
Month to date snowfall 0.0  
Since 1 July snowfall 0.0  
Snow Depth 0.00 in    
Sea Level Pressure  
Sea Level Pressure 30.11 in    
Wind  
Wind Speed 10 mph (ESE)    
Max Wind Speed 21 mph    
Max Gust Speed 26 mph    
Visibility 8 miles    
Events Rain    
T = Trace of Precipitation, MM = Missing Value Source: NWS Daily Summary

Daily Weather History Graph

Daily Weather History Graph

Search for Another Location

Airport:

Trip Planner

Search our weather history database for the weather conditions in past years. The results will help you decide how hot, cold, wet, or windy it might be!

Date:

Astronomy

Aug. 01, 2014 Rise Set
Actual Time 6:11 AM EDT 8:05 PM EDT
Civil Twilight 5:43 AM EDT 8:33 PM EDT
Nautical Twilight 5:09 AM EDT 9:07 PM EDT
Astronomical Twilight 4:33 AM EDT 9:43 PM EDT
Moon 11:19 AM EDT (8/1) 11:03 PM EDT (8/1)
Length of Visible Light 14h 50m
Length of Day
13h 54m
Waxing Crescent, 27% of the Moon is Illuminated
Aug 1
Waxing Crescent
Aug 3
First Quarter
Aug 10
Full
Aug 17
Last Quarter
Aug 25
New

Hourly Weather History & Observations

Time (EDT) Temp. Heat Index Dew Point Humidity Pressure Visibility Wind Dir Wind Speed Gust Speed Precip Events Conditions
12:51 AM 79.0 °F - 66.0 °F 64% 30.15 in 10.0 mi ESE 11.5 mph - N/A   Clear
1:51 AM 79.0 °F - 66.9 °F 66% 30.14 in 10.0 mi ESE 11.5 mph - N/A   Clear
2:51 AM 79.0 °F - 69.1 °F 72% 30.12 in 10.0 mi ESE 10.4 mph - N/A   Clear
3:51 AM 77.0 °F - 69.1 °F 76% 30.11 in 10.0 mi East 5.8 mph - N/A   Clear
4:51 AM 75.9 °F - 71.1 °F 85% 30.10 in 10.0 mi ENE 5.8 mph - N/A   Clear
5:51 AM 77.0 °F - 71.1 °F 82% 30.09 in 10.0 mi ENE 6.9 mph - N/A   Clear
6:51 AM 78.1 °F - 73.0 °F 84% 30.10 in 10.0 mi ENE 6.9 mph - N/A   Clear
7:51 AM 80.1 °F 84.5 °F 73.9 °F 81% 30.09 in 10.0 mi East 5.8 mph - N/A   Clear
8:35 AM 78.1 °F - 75.9 °F 93% 30.10 in 8.0 mi East 6.9 mph - 0.05 in Rain Light Rain
8:44 AM 79.0 °F - 75.9 °F 90% 30.11 in 10.0 mi East 8.1 mph - 0.05 in   Scattered Clouds
8:51 AM 79.0 °F - 75.9 °F 90% 30.11 in 10.0 mi ENE 5.8 mph - 0.05 in   Mostly Cloudy
9:27 AM 80.1 °F 85.4 °F 75.9 °F 87% 30.11 in 9.0 mi East 6.9 mph - N/A   Scattered Clouds
9:51 AM 80.1 °F 85.4 °F 75.9 °F 87% 30.11 in 9.0 mi East 10.4 mph - N/A   Mostly Cloudy
10:19 AM 79.0 °F - 75.9 °F 90% 30.10 in 2.5 mi East 11.5 mph - 0.01 in   Mostly Cloudy
10:27 AM 79.0 °F - 75.9 °F 90% 30.10 in 9.0 mi East 10.4 mph - 0.01 in   Mostly Cloudy
11:17 AM 79.0 °F - 77.0 °F 94% 30.10 in 9.0 mi ESE 11.5 mph - 0.04 in   Overcast
11:30 AM 80.1 °F 86.4 °F 78.1 °F 94% 30.10 in 10.0 mi ESE 13.8 mph - 0.04 in Rain Light Rain
11:51 AM 80.1 °F 85.8 °F 77.0 °F 90% 30.10 in 10.0 mi SE 13.8 mph - 0.04 in   Mostly Cloudy
12:51 PM 77.0 °F - 72.0 °F 84% 30.12 in 8.0 mi South 17.3 mph - 0.00 in Rain Light Rain
1:51 PM 73.9 °F - 71.1 °F 91% 30.13 in 4.0 mi Calm Calm - 0.09 in Rain Light Rain
2:51 PM 75.0 °F - 73.0 °F 94% 30.12 in 6.0 mi North 3.5 mph - 0.11 in Rain Light Rain
3:47 PM 75.2 °F - 73.4 °F 94% 30.11 in 8.0 mi ENE 5.8 mph - 0.02 in Rain Light Rain
3:51 PM 75.0 °F - 73.9 °F 96% 30.11 in 7.0 mi ENE 5.8 mph - 0.02 in Rain Light Rain
4:04 PM 75.2 °F - 73.4 °F 94% 30.11 in 2.0 mi ENE 6.9 mph - N/A Rain Heavy Rain
4:12 PM 75.0 °F - 73.9 °F 96% 30.10 in 1.5 mi East 8.1 mph - 0.10 in Rain Rain
4:23 PM 73.9 °F - 73.9 °F 100% 30.11 in 1.0 mi ENE 4.6 mph - 0.28 in Rain Rain
4:28 PM 73.9 °F - 73.9 °F 100% 30.10 in 2.0 mi East 11.5 mph 16.1 mph 0.29 in Rain Light Rain
4:38 PM 73.9 °F - 73.9 °F 100% 30.11 in 4.0 mi East 8.1 mph - 0.31 in Rain Light Rain
5:14 PM 73.9 °F - 73.9 °F 100% 30.12 in 4.0 mi ESE 11.5 mph - 0.03 in Rain Light Rain
5:51 PM 73.9 °F - 73.0 °F 97% 30.10 in 4.0 mi ESE 11.5 mph - 0.12 in Rain Rain
6:51 PM 73.9 °F - 73.9 °F 100% 30.09 in 5.0 mi SE 10.4 mph - 0.20 in Rain Light Rain
7:51 PM 75.0 °F - 73.9 °F 96% 30.08 in 10.0 mi ESE 12.7 mph - 0.07 in Rain Light Rain
8:26 PM 75.0 °F - 75.0 °F 100% 30.10 in 10.0 mi SE 16.1 mph - 0.00 in   Mostly Cloudy
8:33 PM 75.0 °F - 73.9 °F 96% 30.09 in 10.0 mi SE 17.3 mph - 0.00 in   Mostly Cloudy
8:51 PM 75.9 °F - 73.9 °F 94% 30.10 in 10.0 mi SE 15.0 mph 23.0 mph 0.00 in   Mostly Cloudy
9:51 PM 75.9 °F - 73.0 °F 91% 30.09 in 10.0 mi SE 16.1 mph 25.3 mph 0.00 in   Partly Cloudy
10:51 PM 75.9 °F - 73.0 °F 91% 30.09 in 10.0 mi SSE 11.5 mph - N/A   Clear
11:51 PM 75.9 °F - 73.9 °F 94% 30.09 in 10.0 mi SE 12.7 mph - N/A   Clear